Terug naar catalogus

STARLINK-36881

ActiefCommunicatieSSO
NORAD 67962·PAYLOAD·🇺🇸 United States

Gelanceerd Feb 25, 2026 vanaf Vandenberg Space Force Base

Loading…

Volgende Passages (komende 24 uur)

TLE

VersSource: CelesTrak SupGP

Epoch: Sep 14, 2026, 22:56 UTC

1 67962C 26038B   26257.95604167  .00034421  00000+0  10684-2 0  2570
2 67962  97.2842 266.3149 0001659  87.5504 135.5746 15.33424231    15

Volg STARLINK-36881 in realtime met AllMySat

Download on the App Store